Leesburg, FL

9:26 PM EST on December 08, 2019 (GMT -0500)
Leesburg Regional

Weather History for KLEE - November, 2019

Change the Weather History Date:

Tuesday, November 12, 2019

  Actual Average Record
Temperature  
Mean Temperature 70 °F -  
Max Temperature 84 °F 75 °F 87 °F (2002)
Min Temperature 57 °F 53 °F 38 °F (1991)
Cooling Degree Days 6    
Growing Degree Days 20 (Base 50)    
Moisture  
Dew Point 63 °F    
Average Humidity 84    
Maximum Humidity 93    
Minimum Humidity 47    
Precipitation  
Precipitation 0.06 in - - ()
Sea Level Pressure  
Sea Level Pressure 29.97 in    
Wind  
Wind Speed 3 mph (NW)    
Max Wind Speed 17 mph    
Max Gust Speed 24 mph    
Visibility 6 miles    
Events Fog    
Averages and records for this station are not official NWS values.
T = Trace of Precipitation, MM = Missing Value Source: NWS Daily Summary

Daily Weather History Graph

Daily Weather History Graph

Search for Another Location

Airport or City:

Astronomy

Nov. 12, 2019 Rise Set
Actual Time 6:47 AM EST 5:34 PM EST
Civil Twilight 6:22 AM EST 5:59 PM EST
Nautical Twilight 5:54 AM EST 6:27 PM EST
Astronomical Twilight 5:26 AM EST 6:56 PM EST
Moon 5:58 PM EST (11/12) 6:42 AM EST (11/12)
Length of Visible Light 11h 36m
Length of Day
10h 47m
Full, 100% of the Moon is Illuminated
Nov 12
Full
Nov 19
Last Quarter
Nov 26
New
Dec 4
First Quarter
Dec 12
Full

Hourly Weather History & Observations

Time (EST) Temp. Heat Index Dew Point Humidity Pressure Visibility Wind Dir Wind Speed Gust Speed Precip Events Conditions
12:53 AM 66.9 °F - 64.0 °F 90% 30.04 in 10.0 mi NNE 3.5 mph - N/A   Clear
1:53 AM 66.0 °F - 63.0 °F 90% 30.01 in 6.0 mi Calm Calm - N/A   Clear
2:02 AM 64.9 °F - 62.1 °F 90% 30.01 in 1.8 mi Calm Calm - N/A   Clear
2:09 AM 64.9 °F - 63.0 °F 93% 30.01 in 2.5 mi Calm Calm - N/A   Clear
2:20 AM 64.9 °F - 63.0 °F 93% 30.01 in 0.8 mi Calm Calm - N/A   Clear
2:33 AM 64.9 °F - 62.1 °F 90% 30.01 in 2.0 mi Calm Calm - N/A   Clear
2:40 AM 64.9 °F - 62.1 °F 90% 30.00 in 4.0 mi Calm Calm - N/A   Clear
2:53 AM 64.0 °F - 62.1 °F 93% 29.99 in 10.0 mi Calm Calm - N/A   Clear
3:53 AM 64.9 °F - 62.1 °F 90% 29.98 in 5.0 mi Calm Calm - N/A   Scattered Clouds
4:01 AM 64.0 °F - 62.1 °F 93% 29.98 in 1.5 mi Calm Calm - N/A   Scattered Clouds
4:08 AM 64.0 °F - 61.0 °F 90% 29.98 in 1.5 mi Calm Calm - N/A   Mostly Cloudy
4:11 AM 64.0 °F - 61.0 °F 90% 29.97 in 4.0 mi Calm Calm - N/A   Mostly Cloudy
4:27 AM 64.9 °F - 62.1 °F 90% 29.97 in 2.5 mi Calm Calm - N/A   Scattered Clouds
4:29 AM 64.9 °F - 62.1 °F 90% 29.97 in 1.2 mi Calm Calm - N/A   Mostly Cloudy
4:37 AM 64.0 °F - 62.1 °F 93% 29.97 in 0.2 mi Calm Calm - N/A Fog Fog
4:53 AM 64.0 °F - 62.1 °F 93% 29.97 in 0.5 mi Calm Calm - N/A Fog Fog
5:05 AM 64.0 °F - 62.1 °F 93% 29.97 in 1.0 mi Calm Calm - N/A   Mist
5:13 AM 64.9 °F - 62.1 °F 90% 29.96 in 0.5 mi Calm Calm - N/A Fog Fog
5:32 AM 64.9 °F - 62.1 °F 90% 29.96 in 2.5 mi Calm Calm - N/A   Mostly Cloudy
5:39 AM 64.9 °F - 62.1 °F 90% 29.96 in 10.0 mi Calm Calm - N/A   Mostly Cloudy
5:53 AM 66.0 °F - 64.0 °F 93% 29.96 in 10.0 mi Calm Calm - N/A   Scattered Clouds
6:07 AM 64.9 °F - 63.0 °F 93% 29.97 in 7.0 mi Calm Calm - N/A   Mostly Cloudy
6:25 AM 64.0 °F - 62.1 °F 93% 29.97 in 1.5 mi Calm Calm - N/A   Overcast
6:33 AM 64.9 °F - 63.0 °F 93% 29.97 in 0.2 mi Calm Calm - N/A Fog Fog
6:53 AM 64.9 °F - 63.0 °F 93% 29.97 in 0.2 mi Calm Calm - N/A Fog Fog
7:53 AM 68.0 °F - 66.0 °F 93% 29.98 in 0.2 mi Calm Calm - N/A Fog Fog
8:16 AM 69.1 °F - 66.9 °F 93% 29.99 in 2.5 mi Calm Calm - N/A   Mostly Cloudy
8:20 AM 69.1 °F - 66.9 °F 93% 29.99 in 10.0 mi Calm Calm - N/A   Clear
8:53 AM 72.0 °F - 68.0 °F 87% 29.99 in 10.0 mi Calm Calm - N/A   Clear
9:53 AM 77.0 °F - 64.9 °F 66% 29.99 in 10.0 mi WSW 5.8 mph - N/A   Clear
10:53 AM 80.1 °F 82.1 °F 66.0 °F 62% 29.98 in 10.0 mi SSE 6.9 mph - N/A   Clear
11:53 AM 82.9 °F 83.7 °F 62.1 °F 49% 29.95 in 10.0 mi WSW 8.1 mph - N/A   Clear
12:53 PM 81.0 °F 82.5 °F 64.0 °F 56% 29.93 in 10.0 mi West 9.2 mph - N/A   Mostly Cloudy
1:53 PM 84.0 °F 84.5 °F 62.1 °F 47% 29.90 in 10.0 mi West 15.0 mph 21.9 mph N/A   Scattered Clouds
2:53 PM 82.9 °F 83.3 °F 61.0 °F 47% 29.88 in 10.0 mi West 12.7 mph 18.4 mph N/A   Clear
3:53 PM 82.0 °F 83.0 °F 62.1 °F 51% 29.88 in 10.0 mi West 9.2 mph 17.3 mph N/A   Clear
4:53 PM 79.0 °F - 64.0 °F 60% 29.89 in 10.0 mi West 8.1 mph - N/A   Clear
5:53 PM 75.9 °F - 64.9 °F 69% 29.91 in 10.0 mi West 3.5 mph - N/A   Scattered Clouds
6:53 PM 71.1 °F - 66.9 °F 87% 29.93 in 10.0 mi NW 5.8 mph - 0.01 in   Overcast
7:53 PM 71.1 °F - 66.0 °F 84% 29.95 in 10.0 mi NW 8.1 mph - N/A   Overcast
8:29 PM 71.1 °F - 66.0 °F 84% 29.96 in 10.0 mi NNW 11.5 mph - N/A   Overcast
8:53 PM 69.1 °F - 64.9 °F 87% 29.97 in 7.0 mi NNW 15.0 mph 20.7 mph 0.01 in   Overcast
9:16 PM 66.9 °F - 63.0 °F 87% 29.98 in 6.0 mi North 17.3 mph 23.0 mph N/A   Overcast
9:40 PM 64.9 °F - 62.1 °F 90% 29.99 in 4.0 mi North 13.8 mph - 0.02 in   Overcast
9:53 PM 64.0 °F - 61.0 °F 90% 30.00 in 4.0 mi North 15.0 mph - 0.03 in   Overcast
10:53 PM 60.1 °F - 57.0 °F 90% 30.03 in 10.0 mi North 17.3 mph 24.2 mph 0.01 in   Overcast
11:21 PM 57.0 °F - 53.1 °F 87% 30.04 in 10.0 mi North 16.1 mph - N/A   Overcast
11:53 PM 57.0 °F - 53.1 °F 87% 30.04 in 10.0 mi North 11.5 mph - N/A   Overcast